Location: Helsinki
(60.1699°N, 24.9384°E)
Time: 21:24:10
(UTC+03:00)

A-11 Canister half - Pass Details

Date: 05 June 2024
Orbit: 1525 x 1683 km, 47.3° (Epoch: 14 June)

Event Time Altitude Azimuth Distance (km) Brightness Sun altitude
Rises 01:17:09 0° 277° (W) 4,715 11.7 -7.3°
Reaches altitude 10° 01:21:19 10° 261° (W) 3,751 10.9 -7.3°
Maximum altitude 01:27:19 19° 221° (SW) 3,122 10.2 -7.2°
Drops below altitude 10° 01:33:26 10° 181° (S) 3,821 10.4 -7.2°
Enters shadow 01:34:23 - 176° (S) 4,021 10.5 -7.2°
